Regional Weather Roundup
Issued by NWS

Home | Current Version | Previous Version | Graphics & Text | Print | Product List | Glossary On
Versions: 1 2 3 4 5 6 7 8 9 10 11 12 13 14 15 16 17 18 19 20 21 22 23 24 25 26 27 28 29 30 31 32 33 34 35 36 37 38 39 40 41 42 43 44 45 46 47 48 49 50
000
ASUS43 KLOT 220300
RWRIL

ILLINOIS REGIONAL WEATHER ROUNDUP
NATIONAL WEATHER SERVICE CHICAGO/ROMEOVILLE IL
1000 PM CDT THU AUG 21 2014

NOTE: "FAIR" INDICATES FEW OR NO CLOUDS BELOW 12,000 FEET WITH NO
SIGNIFICANT WEATHER AND/OR OBSTRUCTIONS TO VISIBILITY.

* THESE STATIONS ARE NOT UNDER NWS QUALITY CONTROL. THEY ALSO MAY NOT
  REPORT WEATHER SUCH AS PRECIPITATION OR FOG.

ILZ001-002-007-009-015-016-024-220400-
NORTHWEST ILLINOIS

CITY           SKY/WX    TMP DP  RH WIND       PRES   REMARKS
MOLINE         PTCLDY    76  73  91 SE3       29.89R
STERLING*      MOCLDY    77  73  88 NW3       29.91R
$$

ILZ003-004-008-010-011-017-018-220400-
NORTH CENTRAL ILLINOIS

CITY           SKY/WX    TMP DP  RH WIND       PRES   REMARKS
ROCKFORD       MOCLDY    75  73  93 E5        29.95R
ROCHELLE*      CLOUDY    75  73  93 CALM      29.94R
$$

ILZ005-006-012>014-019>023-220400-
NORTHEAST ILLINOIS

CITY           SKY/WX    TMP DP  RH WIND       PRES   REMARKS
CHICAGO-OHARE  CLOUDY    75  70  84 CALM      29.93R
CHICAGO-MIDWAY CLOUDY    77  73  87 S5        29.93R
AURORA         CLOUDY    75  72  90 CALM      29.94R
WAUKEGAN       FOG       71  70  96 CALM      29.94R VSB 1/4
DUPAGE AIRPORT CLOUDY    75  73  93 CALM      29.94R
WHEELING       MOCLDY    75  72  90 CALM      29.95R FOG
NORTHERLY ISL    N/A     74  71  91 S5          N/A
$$

LMZ740>746-220400-
SOUTHERN LAKE MICHIGAN

STATION/POSITION SKY/WX   TEMP    WIND        PRES    VSBY  WAVE
                          AIR SEA DIR/SP/G                  HT/PER
                          (F)     (DEG/KT/KT) (MB)    (MI)  (FT/S)
SOUTHERN BUOY              69 68   90/  4/  6 1013.9R         0
WAUKEGAN HARBOR            71      20/  2/  3   N/A
HARRISON CRIB              74     190/  7/  7   N/A
BURNHAM HARBOR             73     170/  3/  7   N/A
CALUMET HARBOR             74     170/  5/  7 1012.4R
BURNS HARBOR               74     180/  6/  9   N/A
MICHIGAN CITY              73     130/  8/ 11   N/A
MICHIGAN CITY 6N           73 71  140/  2/  4   N/A           1
ST. JOSEPH                 73 71  140/  6/ 10   N/A           0
$$

ILZ025>027-034>036-040-047-049-050-058-095>099-220400-
WEST-CENTRAL ILLINOIS

CITY           SKY/WX    TMP DP  RH WIND       PRES   REMARKS
QUINCY         CLEAR     81  76  84 S6        29.91R HX  87
MACOMB*        PTCLDY    77  75  95 S5        29.92R
$$

ILZ028>032-037-038-041>044-048-051>054-059>061-220400-
CENTRAL ILLINOIS

CITY           SKY/WX    TMP DP  RH WIND       PRES   REMARKS
DECATUR        CLEAR     81  76  84 S8        29.95S HX  87
PEORIA         MOCLDY    83  77  82 S5        29.91R HX  92
SPRINGFIELD    CLEAR     83  77  82 S10       29.92S HX  92
TAYLORVILLE    NOT AVBL
$$

ILZ033-039-045-046-055>057-062-063-220400-
EAST-CENTRAL ILLINOIS

CITY           SKY/WX    TMP DP  RH WIND       PRES   REMARKS
CHAMPAIGN      PTCLDY    79  76  90 S9        29.96R HX  83
MATTOON        CLEAR     80  74  81 S7        29.97R HX  85
$$

ILZ079-100>102-220400-
SOUTHWEST ILLINOIS

CITY           SKY/WX    TMP DP  RH WIND       PRES   REMARKS
ALTON          CLEAR     81  79  94 SE5       29.95R HX  89
BELLEVILLE     CLEAR     80  77  91 CALM      29.96R HX  87
CAHOKIA*       CLEAR     83  76  79 SE5       29.94R HX  91
$$

ILZ064>066-069>071-074>076-080>082-084>086-088>090-092>094-220400-
SOUTH-CENTRAL ILLINOIS

CITY           SKY/WX    TMP DP  RH WIND       PRES   REMARKS
CARBONDALE     CLEAR     82  74  76 S12       29.99R HX  88
MT. VERNON     CLEAR     79  72  78 S3        30.00R HX  82
SALEM*         CLEAR     82  77  86 S7        29.99R HX  89
$$

ILZ067-068-072-073-078-083-087-091-220400-
SOUTHEAST ILLINOIS

CITY           SKY/WX    TMP DP  RH WIND       PRES   REMARKS
LAWRENCEVILLE  CLEAR     76  74  93 CALM      30.00R
HARRISBURG*    CLEAR     80  75  85 S6        30.01R HX  85
ROBINSON*      PTCLDY    75  74  97 CALM      30.00R
$$

ABBREVIATIONS USED IN REMARKS
   TC - TEMPERATURE IN CELSIUS
  WCI - WIND CHILL INDEX
   HX - HEAT INDEX
  VSB - VISIBILITY
$$




USA.gov is the U.S. government's official web portal to all federal, state and local government web resources and services.